This demonstration page uses our WeatherBlox Daily Observations layout. Learn more.

Left ArrowRight Arrow

Hourly Observations for September 1, 2015

Temp ( °F °C ) Dew Point ( °F °C ) Humidity (%) Winds ( mph kmh ) Pressure ( in mb ) Visibility ( mi km ) Precip ( " mm )
12:53 am 00:53 Clear 77 25 55 12.8 47 47 SE 8 13 29.85 1011 10 16 0.00 0.00
1:53 am 01:53 Clear 76 24.4 54 12.2 47 47 SE 9 15 29.85 1011 10 16 0.00 0.00
2:53 am 02:53 Clear 75 23.9 54 12.2 48 48 SE 9 15 29.84 1011 10 16 0.00 0.00
3:53 am 03:53 Clear 74 23.3 55 12.8 52 52 SE 12 19 29.84 1010 10 16 0.00 0.00
4:53 am 04:53 Clear 73 22.8 55 12.8 53 53 SE 15 24 29.83 1010 10 16 0.00 0.00
5:53 am 05:53 Clear 72 22.2 57 13.9 59 59 SE 13 20 29.83 1010 10 16 0.00 0.00
6:53 am 06:53 Clear 71 21.7 60 15.6 68 68 SE 13 20 29.85 1011 10 16 0.00 0.00
7:53 am 07:53 Sunny 70 21.1 61 16.1 73 73 SE 10 17 29.88 1012 10 16 0.00 0.00
8:53 am 08:53 Sunny 73 22.8 61 16.1 66 66 SE 14 22 29.89 1012 10 16 0.00 0.00
9:53 am 09:53 Sunny 78 25.6 61 16.1 56 56 SSE 16 26 29.90 1012 10 16 0.00 0.00
10:53 am 10:53 Sunny 82 27.8 61 16.1 49 49 SE 16 26 29.91 1013 10 16 0.00 0.00
11:53 am 11:53 Sunny 86 30 60 15.6 42 42 SSE 13 20 29.91 1013 10 16 0.00 0.00
12:53 pm 12:53 Sunny 91 32.8 57 13.9 32 32 SSE 14 22 29.89 1012 10 16 0.00 0.00
1:53 pm 13:53 Sunny 94 34.4 54 12.2 26 26 SE 16 26 29.87 1011 10 16 0.00 0.00
2:53 pm 14:53 Sunny 94 34.4 50 10 22 22 SE 10 17 29.85 1011 10 16 0.00 0.00
3:53 pm 15:53 Sunny 95 35 52 11.1 23 23 ESE 13 20 29.83 1010 10 16 0.00 0.00
4:53 pm 16:53 Sunny 96 35.6 51 10.6 22 22 SE 15 24 29.81 1010 10 16 0.00 0.00
5:53 pm 17:53 Sunny 96 35.6 50 10 21 21 ESE 12 19 29.81 1009 10 16 0.00 0.00
6:53 pm 18:53 Sunny 94 34.4 50 10 22 22 ESE 15 24 29.81 1010 10 16 0.00 0.00
7:53 pm 19:53 Sunny 91 32.8 49 9.4 24 24 ESE 13 20 29.82 1010 10 16 0.00 0.00
8:53 pm 20:53 Clear 87 30.6 51 10.6 29 29 ESE 10 17 29.83 1010 10 16 0.00 0.00
9:53 pm 21:53 Clear 83 28.3 52 11.1 34 34 SE 10 17 29.86 1011 10 16 0.00 0.00
10:53 pm 22:53 Clear 81 27.2 52 11.1 37 37 SE 10 17 29.88 1012 10 16 0.00 0.00
11:53 pm 23:53 Clear 78 25.6 52 11.1 40 40 SE 8 13 29.89 1012 10 16 0.00 0.00

Powered by AerisWeather